{"data":{"norad_id":59167,"epoch":"2026-09-20T22:04:16.435488Z","epoch_age_seconds":122552,"freshness":"FRESH","line1":"1 59167U 24044R   26263.91963467  .00000355  00000+0  22408-4 0  9998","line2":"2 59167  43.0014  84.4532 0001189 266.8269  93.2446 15.27577885143423","mean_motion":15.27577885,"eccentricity":0.0001189,"inclination_deg":43.0014,"raan_deg":84.4532,"arg_perigee_deg":266.8269,"mean_anomaly_deg":93.2446,"bstar":2.2408e-5,"rev_number":14342,"period_min":94.266879230187,"perigee_km":482.23963333801,"apogee_km":483.87122489765,"semimajor_km":6861.1924291178,"source":"CELESTRAK","updated_at":"2026-09-21T09:00:34.059349Z"}}